Temp
6 5 5 5 5 4 4 4 4 4 3 3 3 3 3 3 3 3 2 2 2 2 2 2 2 2 2 2 2 1 1 1 1 1 1 1 1 1 1 1 1 1 1 1 1 1 1 1 1 1 1 1 1 1 1 1 1 1 1 1 1 2 2 2 2 2 2 2 2
5 5 5 5 4 4 4 4 3 3 3 3 3 3 2 2 2 2 2 2 2 2 1 1 1 1 1 1 1 1 1 1 1 1 1 1 1 1 1 1 1 1 1 1 1 1 1 1 1 1 0 0 0 0 0 0 0 1 1 1 1 1 1 1 2 2 2 2 2
5 5 4 4 4 4 3 3 3 3 2 2 2 2 2 2 2 2 2 2 2 1 1 1 1 1 1 1 1 1 1 1 1 1 0 0 1 1 1 1 1 1 1 1 1 1 1 1 1 0 0 0 0 0 0 0 0 0 1 1 1 1 1 1 1 1 1 2 2
4 4 4 4 3 3 3 3 2 2 2 2 2 2 2 2 2 2 2 1 1 1 1 0 0 1 1 1 1 1 1 0 0 0 0 0 0 0 0 0 0 0 0 0 0 0 0 0 0 0 0 0 0 0 0 0 0 0 0 1 1 1 1 1 1 1 1 1 1
4 4 3 3 3 3 2 2 2 2 2 2 2 2 2 1 1 1 1 1 1 1 0 0 0 0 1 1 0 0 0 0 0 -0 -0 -0 -0 -0 -0 0 0 0 0 0 0 0 0 0 -0 -0 -0 -0 -0 -0 -0 -0 0 0 0 0 0 1 1 1 1 1 1 1 1
3 3 3 2 2 2 2 2 2 2 2 2 2 1 1 1 1 1 0 0 0 0 -0 -0 0 0 0 0 0 0 -0 -0 -0 -0 -1 -1 -1 -1 -1 -1 -1 -1 -0 -0 -0 -0 -0 -0 -1 -1 -1 -1 -1 -1 -1 -1 -0 -0 -0 -0 0 0 0 0 1 1 1 1 1
2 2 2 2 2 2 2 2 2 2 2 1 1 1 1 1 1 1 0 0 0 -0 -0 -0 -0 -0 -0 -0 -0 -1 -1 -1 -1 -1 -1 -1 -1 -1 -1 -1 -1 -1 -1 -1 -1 -1 -1 -1 -1 -1 -1 -1 -1 -1 -1 -1 -1 -1 -1 -1 -0 -0 -0 0 0 0 0 0 1
2 1 1 1 1 2 2 2 2 1 1 1 1 1 1 1 0 0 0 0 -0 -0 -0 -1 -1 -1 -1 -1 -1 -1 -1 -1 -1 -1 -1 -1 -1 -1 -1 -2 -2 -1 -1 -1 -1 -1 -1 -2 -2 -2 -2 -2 -2 -1 -1 -1 -1 -1 -1 -1 -1 -1 -1 -0 -0 -0 -0 0 0
1 1 1 1 1 2 2 1 1 1 1 1 1 0 0 0 0 0 -0 -0 -0 -1 -1 -1 -1 -1 -1 -1 -2 -2 -2 -2 -2 -2 -2 -2 -2 -2 -2 -2 -2 -2 -2 -2 -2 -2 -2 -2 -2 -2 -2 -2 -2 -2 -2 -2 -1 -1 -2 -1 -1 -1 -1 -1 -1 -1 -1 -0 -0
1 1 1 1 1 1 1 1 1 1 1 1 0 0 0 -0 -0 -0 -1 -1 -1 -1 -1 -1 -1 -2 -2 -2 -2 -2 -2 -2 -2 -2 -2 -2 -2 -2 -2 -2 -2 -2 -2 -2 -2 -2 -2 -3 -2 -2 -2 -2 -2 -2 -2 -2 -2 -2 -2 -2 -2 -2 -1 -1 -1 -1 -1 -1 -1
1 1 1 1 1 1 1 1 1 0 0 0 -0 -0 -0 -1 -1 -1 -1 -1 -1 -1 -1 -2 -2 -2 -2 -2 -2 -2 -2 -3 -3 -3 -3 -3 -3 -3 -3 -3 -3 -3 -3 -2 -3 -3 -3 -3 -3 -3 -2 -2 -2 -2 -2 -2 -2 -2 -2 -2 -2 -2 -2 -2 -1 -1 -1 -1 -1
1 1 1 1 1 1 1 1 0 0 -0 -0 -0 -1 -1 -1 -1 -1 -1 -1 -1 -1 -2 -2 -2 -2 -2 -2 -3 -3 -3 -3 -3 -3 -3 -3 -3 -3 -3 -3 -3 -3 -3 -3 -3 -3 -3 -3 -3 -3 -3 -3 -3 -3 -3 -3 -3 -3 -3 -3 -2 -2 -2 -2 -2 -2 -1 -1 -1
1 1 1 1 1 1 0 0 -0 -0 -0 -1 -1 -1 -1 -1 -1 -1 -1 -1 -1 -2 -2 -2 -2 -2 -2 -3 -3 -3 -3 -3 -3 -3 -3 -3 -3 -3 -3 -3 -3 -3 -3 -3 -3 -3 -3 -3 -3 -3 -3 -3 -3 -3 -3 -3 -3 -3 -3 -3 -3 -3 -3 -3 -2 -2 -2 -2 -2
1 1 1 1 0 0 0 -0 -0 -1 -1 -1 -1 -1 -1 -1 -1 -1 -1 -2 -2 -2 -2 -2 -2 -3 -3 -3 -3 -3 -3 -3 -3 -3 -3 -3 -3 -3 -3 -3 -3 -3 -3 -3 -3 -3 -3 -3 -3 -3 -3 -3 -3 -3 -3 -3 -3 -3 -3 -3 -3 -3 -3 -3 -3 -3 -3 -3 -2
1 1 1 0 0 -0 -0 -1 -1 -1 -1 -1 -1 -1 -1 -1 -1 -1 -2 -2 -2 -2 -2 -2 -2 -3 -3 -3 -3 -3 -3 -3 -3 -3 -3 -3 -3 -3 -3 -3 -3 -3 -3 -4 -4 -4 -4 -4 -4 -4 -4 -4 -4 -4 -4 -4 -4 -4 -4 -4 -3 -3 -3 -3 -3 -3 -3 -3 -3
1 0 0 -0 -0 -1 -1 -1 -1 -1 -1 -1 -1 -1 -1 -1 -2 -2 -2 -2 -2 -2 -2 -3 -3 -3 -3 -3 -3 -3 -3 -3 -3 -3 -3 -3 -3 -3 -3 -3 -4 -4 -4 -4 -4 -4 -4 -4 -4 -4 -4 -4 -4 -4 -4 -4 -4 -4 -4 -4 -4 -4 -4 -4 -3 -3 -3 -3 -3
0 0 -0 -0 -1 -1 -1 -1 -1 -1 -1 -1 -1 -1 -1 -2 -2 -2 -2 -2 -2 -2 -3 -3 -3 -3 -3 -3 -3 -3 -3 -3 -3 -3 -3 -3 -4 -4 -4 -4 -4 -4 -4 -4 -4 -4 -4 -4 -4 -5 -5 -5 -5 -5 -5 -5 -5 -5 -5 -4 -4 -4 -4 -4 -4 -4 -3 -3 -3
-0 -0 -0 -1 -1 -1 -1 -1 -1 -1 -1 -1 -1 -1 -1 -2 -2 -2 -2 -2 -2 -3 -3 -3 -3 -3 -3 -3 -3 -3 -3 -3 -3 -3 -4 -4 -4 -4 -4 -4 -4 -4 -4 -4 -4 -5 -5 -5 -5 -5 -5 -5 -5 -5 -5 -5 -5 -5 -5 -5 -5 -5 -5 -5 -4 -4 -4 -4 -4
-0 -0 -1 -1 -1 -1 -1 -1 -1 -1 -1 -1 -1 -1 -2 -2 -2 -2 -2 -2 -3 -3 -3 -3 -3 -3 -3 -3 -3 -3 -3 -3 -3 -3 -4 -4 -4 -4 -4 -4 -4 -4 -4 -5 -5 -5 -5 -5 -5 -5 -5 -6 -6 -6 -6 -6 -6 -6 -5 -5 -5 -5 -5 -5 -5 -5 -4 -4 -4
-0 -1 -1 -1 -1 -1 -1 -1 -1 -1 -1 -1 -1 -2 -2 -2 -2 -2 -3 -3 -3 -3 -3 -3 -3 -3 -3 -3 -3 -3 -3 -3 -3 -4 -4 -4 -4 -4 -4 -4 -4 -5 -5 -5 -5 -5 -5 -5 -6 -6 -6 -6 -6 -6 -6 -6 -6 -6 -6 -6 -6 -6 -6 -6 -5 -5 -5 -5 -5
-1 -1 -1 -1 -1 -1 -1 -1 -1 -1 -1 -1 -2 -2 -2 -2 -3 -3 -3 -3 -3 -3 -3 -3 -3 -3 -3 -3 -3 -3 -3 -3 -3 -4 -4 -4 -4 -4 -4 -5 -5 -5 -5 -5 -5 -5 -6 -6 -6 -6 -6 -7 -7 -7 -7 -7 -7 -7 -7 -7 -7 -7 -6 -6 -6 -6 -6 -5 -5
-1 -1 -1 -1 -1 -1 -1 -1 -1 -1 -2 -2 -2 -2 -2 -3 -3 -3 -3 -3 -3 -3 -3 -3 -3 -3 -3 -3 -3 -3 -3 -3 -3 -3 -4 -4 -4 -5 -5 -5 -5 -5 -5 -5 -5 -6 -6 -6 -6 -7 -7 -7 -7 -7 -8 -8 -8 -8 -8 -8 -8 -7 -7 -7 -7 -7 -7 -6 -6
-1 -1 -1 -1 -1 -1 -1 -1 -1 -2 -2 -2 -2 -2 -3 -3 -3 -3 -3 -3 -3 -3 -2 -2 -2 -2 -2 -2 -2 -3 -3 -3 -3 -3 -4 -4 -5 -5 -5 -5 -5 -5 -5 -5 -6 -6 -6 -6 -7 -7 -7 -8 -8 -8 -8 -8 -8 -8 -8 -8 -8 -8 -8 -8 -8 -8 -7 -7 -7
-1 -1 -1 -1 -1 -1 -1 -1 -1 -2 -2 -2 -2 -3 -3 -3 -3 -3 -3 -3 -2 -2 -2 -2 -2 -2 -2 -2 -2 -2 -3 -3 -4 -4 -4 -5 -5 -5 -6 -6 -6 -6 -6 -6 -6 -6 -7 -7 -7 -8 -8 -8 -8 -8 -8 -8 -9 -9 -9 -8 -8 -8 -8 -8 -8 -8 -8 -8 -8
-1 -1 -1 -1 -1 -1 -1 -1 -2 -2 -2 -2 -2 -3 -3 -3 -3 -3 -3 -2 -2 -2 -2 -2 -2 -2 -2 -2 -2 -3 -3 -4 -4 -5 -5 -5 -5 -5 -6 -6 -6 -6 -6 -6 -6 -6 -7 -7 -8 -8 -8 -8 -8 -9 -9 -9 -9 -9 -9 -9 -9 -8 -8 -8 -8 -8 -8 -8 -8
-1 -1 -1 -1 -1 -1 -1 -2 -2 -2 -2 -2 -2 -3 -3 -3 -3 -3 -2 -2 -2 -2 -2 -2 -2 -2 -3 -3 -3 -4 -4 -5 -5 -5 -5 -6 -6 -6 -6 -6 -6 -6 -6 -6 -6 -6 -7 -7 -8 -8 -8 -8 -9 -9 -9 -9 -9 -9 -9 -9 -9 -9 -8 -8 -8 -8 -8 -8 -8
-1 -1 -1 -1 -1 -1 -2 -2 -2 -2 -2 -2 -2 -3 -3 -2 -2 -2 -2 -2 -2 -2 -2 -2 -2 -3 -3 -4 -4 -4 -5 -5 -5 -5 -6 -6 -6 -6 -6 -6 -7 -6 -6 -6 -6 -7 -7 -7 -7 -8 -8 -9 -9 -9 -9 -9 -9 -9 -9 -9 -9 -9 -8 -8 -8 -8 -8 -8 -8
-1 -1 -1 -1 -2 -2 -2 -2 -2 -2 -2 -2 -2 -2 -2 -2 -2 -2 -2 -2 -2 -2 -3 -3 -3 -3 -4 -4 -5 -5 -5 -5 -5 -6 -6 -6 -6 -7 -7 -7 -7 -7 -7 -7 -7 -7 -7 -7 -8 -8 -8 -8 -9 -9 -9 -9 -9 -9 -9 -9 -9 -9 -8 -8 -8 -8 -8 -8 -8
-1 -1 -2 -2 -2 -2 -2 -2 -2 -2 -2 -2 -2 -2 -2 -2 -2 -2 -2 -2 -3 -3 -3 -4 -4 -4 -4 -5 -5 -5 -5 -5 -6 -6 -6 -7 -7 -7 -7 -7 -7 -7 -7 -7 -7 -7 -7 -7 -8 -8 -8 -8 -8 -9 -9 -9 -9 -9 -9 -9 -9 -8 -8 -8 -8 -8 -8 -8 -8
-1 -2 -2 -2 -2 -2 -2 -2 -2 -2 -2 -2 -2 -2 -2 -2 -2 -2 -3 -3 -3 -4 -4 -4 -4 -5 -5 -5 -5 -5 -6 -6 -6 -6 -7 -7 -7 -7 -7 -7 -7 -7 -7 -7 -7 -7 -7 -7 -8 -8 -8 -8 -8 -8 -8 -9 -9 -9 -9 -9 -8 -8 -8 -8 -8 -8 -8 -8 -8
-2 -2 -2 -2 -2 -2 -2 -2 -2 -2 -2 -2 -2 -2 -2 -2 -3 -3 -3 -4 -4 -4 -4 -4 -5 -5 -5 -5 -6 -6 -6 -6 -6 -6 -7 -7 -7 -7 -7 -7 -7 -7 -7 -7 -7 -7 -7 -7 -7 -7 -7 -7 -8 -8 -8 -8 -8 -8 -8 -8 -8 -8 -8 -8 -8 -8 -8 -8 -8
-2 -2 -2 -2 -2 -2 -2 -2 -2 -2 -2 -2 -2 -2 -3 -3 -3 -3 -3 -4 -4 -4 -4 -4 -5 -5 -5 -6 -6 -6 -6 -6 -6 -7 -7 -7 -7 -7 -7 -7 -7 -7 -7 -6 -6 -7 -7 -7 -7 -7 -7 -7 -7 -7 -8 -8 -8 -8 -8 -8 -8 -8 -8 -8 -8 -8 -8 -8 -8
-2 -2 -2 -2 -2 -2 -2 -2 -2 -2 -2 -2 -3 -3 -3 -3 -3 -3 -3 -4 -4 -4 -5 -5 -5 -5 -6 -6 -6 -6 -6 -7 -7 -7 -7 -7 -7 -7 -7 -7 -7 -7 -6 -6 -6 -6 -7 -7 -7 -7 -7 -7 -7 -7 -7 -7 -8 -8 -8 -8 -8 -8 -8 -8 -8 -8 -8 -8 -8
-2 -2 -2 -2 -2 -2 -2 -2 -2 -3 -3 -3 -3 -3 -3 -3 -3 -3 -3 -4 -4 -5 -5 -5 -6 -6 -6 -6 -6 -7 -7 -6 -6 -6 -7 -7 -7 -7 -7 -7 -7 -7 -7 -7 -7 -7 -7 -7 -7 -7 -6 -6 -6 -7 -7 -7 -7 -7 -7 -7 -7 -7 -7 -7 -7 -7 -7 -7 -7
-2 -2 -2 -2 -2 -2 -2 -3 -3 -3 -3 -3 -3 -3 -3 -3 -3 -4 -4 -4 -5 -5 -5 -5 -6 -6 -6 -6 -6 -7 -6 -6 -6 -6 -6 -7 -7 -7 -7 -7 -7 -7 -7 -7 -7 -7 -7 -6 -6 -6 -6 -6 -6 -7 -7 -7 -7 -7 -7 -7 -7 -7 -7 -7 -7 -7 -7 -7 -7
-2 -2 -2 -2 -2 -3 -3 -3 -3 -3 -3 -3 -3 -3 -3 -3 -3 -4 -4 -5 -5 -5 -5 -6 -6 -6 -6 -6 -6 -6 -6 -6 -6 -6 -6 -7 -7 -7 -7 -7 -7 -7 -7 -6 -6 -6 -6 -6 -6 -6 -6 -6 -7 -7 -7 -7 -7 -7 -7 -7 -7 -7 -7 -7 -7 -7 -7 -7 -7
-3 -3 -3 -3 -3 -3 -3 -3 -3 -3 -3 -3 -3 -3 -3 -4 -4 -4 -5 -5 -5 -5 -6 -6 -6 -6 -6 -6 -6 -6 -6 -6 -6 -6 -7 -7 -7 -8 -8 -7 -7 -7 -6 -6 -6 -6 -6 -6 -6 -6 -6 -6 -7 -7 -7 -7 -7 -7 -7 -7 -7 -7 -7 -7 -7 -7 -7 -7 -7
-3 -3 -3 -3 -3 -3 -3 -3 -3 -3 -3 -3 -3 -4 -4 -4 -4 -4 -5 -5 -5 -6 -6 -6 -6 -6 -6 -6 -6 -6 -6 -6 -6 -7 -7 -7 -8 -8 -8 -8 -7 -7 -6 -6 -6 -6 -6 -6 -6 -6 -6 -7 -7 -7 -7 -7 -7 -7 -6 -6 -6 -6 -6 -6 -6 -6 -6 -6 -6
-3 -3 -3 -3 -3 -3 -3 -3 -3 -3 -3 -4 -4 -4 -4 -4 -4 -5 -5 -5 -6 -6 -6 -6 -6 -6 -6 -6 -6 -6 -6 -6 -6 -7 -7 -8 -8 -8 -8 -8 -7 -7 -6 -6 -6 -6 -6 -6 -6 -6 -7 -7 -7 -7 -7 -7 -6 -6 -6 -6 -6 -6 -6 -6 -6 -6 -6 -6 -6
-3 -3 -3 -3 -3 -3 -3 -3 -3 -3 -4 -4 -4 -4 -4 -4 -4 -5 -5 -5 -6 -6 -7 -7 -7 -6 -6 -6 -6 -6 -6 -6 -6 -7 -7 -8 -8 -8 -8 -8 -7 -7 -6 -6 -6 -6 -6 -6 -6 -7 -7 -7 -7 -7 -7 -6 -6 -6 -6 -6 -6 -6 -6 -6 -6 -6 -6 -6 -6
-3 -3 -3 -3 -3 -3 -3 -3 -3 -3 -4 -4 -4 -4 -4 -4 -5 -5 -5 -6 -6 -6 -7 -7 -7 -6 -6 -6 -7 -7 -6 -6 -6 -7 -7 -8 -8 -8 -8 -8 -7 -7 -7 -6 -6 -6 -6 -6 -7 -7 -7 -7 -7 -7 -7 -7 -7 -6 -6 -6 -6 -6 -6 -6 -6 -6 -6 -6 -6
Height
1494 1494 1494 1494 1494 1494 1494 1493 1493 1493 1493 1493 1493 1492 1491 1491 1490 1490 1489 1488 1487 1487 1486 1485 1484 1484 1483 1482 1482 1481 1480 1480 1480 1479 1478 1478 1477 1477 1476 1476 1475 1475 1474 1473 1473 1472 1471 1471 1470 1469 1468 1467 1466 1465 1465 1464 1464 1463 1463 1463 1462 1462 1462 1461 1460 1460 1460 1459 1458
1492 1492 1492 1492 1492 1492 1492 1492 1492 1491 1491 1491 1490 1490 1490 1489 1488 1488 1487 1487 1486 1485 1484 1483 1482 1481 1481 1480 1480 1479 1479 1478 1477 1477 1476 1475 1475 1475 1474 1473 1473 1472 1471 1471 1470 1470 1469 1468 1468 1467 1465 1465 1464 1463 1462 1461 1461 1460 1460 1459 1459 1459 1459 1458 1457 1457 1456 1456 1455
1491 1491 1491 1491 1491 1491 1491 1490 1490 1490 1490 1489 1488 1488 1488 1487 1486 1486 1485 1485 1484 1483 1482 1481 1480 1479 1479 1478 1478 1477 1476 1476 1475 1475 1474 1473 1473 1472 1472 1471 1470 1469 1469 1468 1467 1467 1466 1465 1465 1464 1463 1462 1461 1460 1459 1459 1459 1458 1457 1456 1456 1456 1455 1455 1454 1454 1454 1453 1452
1489 1489 1490 1490 1490 1490 1489 1489 1489 1488 1488 1487 1487 1486 1486 1485 1484 1484 1483 1482 1482 1481 1480 1479 1478 1477 1476 1476 1475 1475 1474 1474 1473 1472 1471 1471 1470 1470 1469 1468 1468 1467 1466 1465 1464 1464 1463 1462 1461 1460 1459 1458 1457 1457 1456 1455 1455 1455 1454 1454 1453 1453 1452 1451 1451 1451 1450 1450 1449
1488 1488 1488 1488 1488 1488 1487 1487 1487 1486 1486 1486 1485 1485 1484 1483 1482 1481 1481 1480 1480 1479 1478 1477 1476 1475 1474 1474 1473 1472 1472 1471 1470 1470 1469 1468 1467 1467 1466 1465 1465 1464 1463 1462 1461 1460 1460 1459 1458 1457 1455 1455 1454 1453 1452 1452 1452 1451 1450 1450 1450 1449 1449 1448 1447 1447 1447 1446 1445
1486 1487 1487 1487 1487 1486 1486 1485 1485 1485 1485 1484 1483 1483 1482 1481 1481 1480 1479 1479 1478 1477 1476 1475 1474 1472 1471 1471 1470 1470 1469 1468 1468 1467 1466 1465 1464 1464 1463 1462 1461 1460 1460 1459 1458 1457 1456 1455 1455 1453 1452 1451 1450 1449 1448 1449 1448 1447 1447 1446 1446 1445 1445 1444 1444 1444 1443 1442 1442
1485 1485 1485 1485 1485 1485 1485 1484 1484 1483 1483 1482 1481 1481 1480 1480 1479 1478 1477 1476 1476 1475 1474 1472 1471 1470 1469 1468 1467 1467 1466 1465 1465 1464 1463 1462 1461 1460 1460 1459 1458 1457 1456 1455 1455 1454 1453 1452 1451 1450 1448 1448 1447 1445 1445 1445 1444 1444 1443 1442 1442 1441 1441 1440 1440 1440 1440 1439 1438
1484 1484 1484 1484 1484 1484 1483 1483 1482 1481 1481 1480 1479 1479 1478 1477 1477 1476 1475 1474 1474 1472 1471 1470 1469 1468 1467 1466 1465 1464 1463 1462 1461 1460 1460 1459 1458 1457 1456 1455 1454 1453 1452 1451 1451 1450 1449 1448 1447 1446 1445 1444 1443 1442 1441 1441 1441 1440 1439 1439 1438 1438 1437 1437 1436 1436 1435 1435 1435
1483 1483 1483 1483 1483 1482 1481 1481 1480 1480 1479 1478 1477 1477 1476 1475 1474 1474 1473 1472 1471 1470 1469 1468 1466 1465 1464 1463 1462 1461 1460 1459 1458 1457 1456 1455 1455 1454 1453 1452 1451 1450 1449 1448 1447 1446 1445 1445 1444 1442 1441 1440 1440 1438 1438 1437 1437 1436 1435 1435 1434 1434 1433 1433 1432 1432 1432 1431 1431
1483 1483 1482 1482 1481 1480 1480 1479 1478 1477 1477 1476 1475 1475 1474 1473 1472 1471 1470 1470 1468 1467 1466 1465 1464 1463 1462 1460 1460 1458 1457 1456 1455 1454 1453 1452 1451 1450 1449 1448 1447 1446 1445 1445 1444 1443 1442 1441 1440 1439 1438 1437 1436 1435 1434 1433 1433 1432 1431 1430 1430 1429 1429 1429 1429 1428 1428 1427 1427
1482 1482 1481 1480 1479 1478 1478 1477 1476 1475 1475 1474 1473 1473 1472 1471 1470 1469 1468 1467 1466 1465 1464 1463 1462 1460 1459 1458 1456 1455 1454 1453 1452 1451 1450 1449 1448 1447 1446 1445 1444 1443 1442 1441 1440 1440 1439 1438 1436 1435 1434 1433 1432 1431 1430 1429 1429 1428 1427 1426 1425 1425 1424 1424 1424 1424 1424 1423 1423
1480 1480 1479 1478 1477 1476 1476 1475 1474 1474 1473 1472 1472 1471 1470 1470 1469 1468 1466 1465 1464 1463 1462 1460 1460 1458 1456 1455 1454 1453 1452 1450 1449 1448 1447 1446 1445 1444 1443 1442 1441 1440 1439 1437 1437 1436 1435 1433 1432 1431 1430 1429 1428 1428 1426 1425 1425 1424 1423 1422 1421 1421 1420 1419 1419 1419 1419 1419 1419
1479 1478 1477 1476 1475 1475 1474 1473 1473 1472 1471 1471 1470 1469 1469 1468 1467 1465 1464 1463 1462 1460 1459 1458 1457 1455 1454 1453 1451 1450 1449 1448 1447 1445 1444 1443 1442 1441 1440 1438 1437 1436 1435 1434 1433 1432 1431 1429 1428 1427 1426 1425 1424 1423 1423 1422 1421 1420 1420 1419 1418 1417 1416 1415 1415 1415 1415 1415 1414
1477 1476 1475 1475 1474 1473 1472 1472 1471 1470 1470 1469 1468 1467 1466 1465 1464 1463 1462 1460 1459 1458 1457 1455 1454 1453 1452 1450 1449 1448 1446 1445 1444 1442 1441 1440 1438 1437 1436 1435 1434 1432 1431 1430 1429 1428 1427 1425 1424 1423 1422 1421 1420 1419 1419 1418 1417 1416 1416 1415 1414 1413 1412 1412 1411 1411 1411 1411 1410
1475 1474 1473 1473 1472 1471 1471 1470 1470 1469 1468 1467 1466 1465 1464 1463 1461 1460 1459 1458 1456 1455 1454 1453 1451 1450 1449 1447 1446 1445 1443 1442 1440 1439 1438 1436 1435 1434 1432 1431 1430 1429 1428 1426 1425 1424 1423 1422 1420 1420 1419 1417 1416 1415 1415 1414 1413 1412 1411 1410 1410 1409 1409 1408 1408 1408 1408 1407 1407
1473 1472 1472 1471 1471 1470 1470 1469 1468 1467 1466 1465 1464 1463 1461 1460 1459 1458 1456 1455 1454 1452 1451 1450 1448 1447 1445 1444 1443 1441 1440 1438 1437 1435 1434 1433 1431 1430 1429 1428 1426 1425 1424 1423 1422 1420 1419 1418 1417 1415 1415 1413 1412 1411 1410 1410 1409 1408 1407 1406 1405 1405 1405 1404 1404 1404 1404 1404 1403
1472 1471 1470 1470 1469 1469 1468 1467 1466 1465 1464 1463 1461 1460 1459 1458 1457 1455 1454 1453 1451 1450 1448 1447 1445 1444 1442 1441 1440 1438 1437 1435 1434 1432 1431 1430 1428 1427 1425 1424 1423 1422 1420 1419 1418 1416 1415 1414 1413 1412 1410 1409 1408 1407 1406 1405 1404 1404 1403 1402 1401 1401 1400 1400 1400 1400 1400 1400 1399
1470 1470 1469 1468 1468 1467 1466 1465 1464 1463 1461 1460 1459 1458 1457 1455 1454 1453 1451 1450 1448 1447 1445 1444 1442 1441 1440 1438 1436 1435 1434 1432 1430 1429 1427 1426 1425 1423 1422 1420 1419 1418 1417 1415 1414 1413 1411 1410 1409 1408 1407 1405 1404 1403 1402 1401 1400 1399 1398 1398 1397 1396 1396 1396 1395 1395 1395 1395 1395
1469 1468 1468 1467 1466 1465 1464 1463 1461 1460 1459 1458 1457 1455 1454 1453 1451 1450 1448 1447 1445 1444 1442 1441 1439 1438 1436 1435 1433 1432 1430 1429 1427 1425 1424 1422 1421 1420 1418 1417 1415 1414 1413 1411 1410 1409 1407 1406 1405 1404 1403 1401 1400 1399 1398 1397 1396 1395 1395 1394 1393 1393 1392 1392 1392 1392 1391 1391 1391
1467 1466 1466 1465 1464 1463 1461 1460 1459 1458 1457 1455 1454 1453 1451 1450 1449 1447 1445 1444 1443 1441 1440 1438 1436 1435 1433 1432 1430 1429 1427 1425 1424 1422 1420 1419 1418 1416 1415 1413 1412 1410 1409 1408 1406 1405 1404 1402 1401 1400 1399 1398 1396 1395 1394 1393 1392 1391 1390 1390 1389 1389 1388 1388 1388 1388 1387 1387 1387
1465 1465 1464 1463 1461 1460 1459 1458 1457 1456 1454 1453 1452 1450 1449 1447 1446 1444 1443 1441 1440 1438 1437 1435 1434 1432 1430 1429 1427 1425 1424 1422 1420 1419 1417 1415 1414 1412 1411 1410 1408 1407 1405 1404 1402 1401 1400 1398 1397 1396 1395 1393 1392 1391 1390 1389 1388 1387 1386 1385 1385 1384 1384 1384 1383 1383 1383 1383 1383
1463 1462 1461 1460 1460 1458 1457 1456 1455 1453 1452 1450 1449 1448 1446 1445 1443 1442 1440 1439 1437 1435 1434 1432 1431 1429 1427 1426 1424 1422 1420 1419 1417 1415 1414 1412 1410 1409 1408 1406 1405 1403 1401 1400 1398 1397 1395 1394 1392 1391 1390 1389 1387 1386 1385 1385 1384 1382 1381 1381 1380 1380 1379 1379 1379 1378 1378 1378 1378
1461 1460 1459 1458 1457 1456 1455 1454 1452 1451 1450 1448 1447 1445 1444 1442 1441 1439 1438 1436 1434 1433 1431 1430 1428 1426 1425 1423 1421 1419 1417 1415 1413 1412 1410 1409 1407 1406 1404 1403 1401 1399 1397 1395 1394 1392 1391 1390 1388 1387 1386 1385 1384 1383 1382 1381 1380 1379 1378 1377 1376 1376 1375 1375 1374 1374 1373 1373 1373
1459 1458 1457 1456 1455 1454 1453 1451 1450 1449 1447 1446 1445 1443 1442 1440 1438 1436 1435 1433 1432 1430 1428 1426 1425 1423 1421 1419 1417 1415 1414 1412 1410 1408 1407 1406 1404 1403 1401 1400 1398 1395 1394 1392 1390 1389 1388 1386 1385 1384 1383 1382 1381 1380 1379 1378 1377 1376 1375 1374 1373 1372 1371 1371 1370 1370 1369 1369 1368
1457 1456 1455 1454 1453 1452 1450 1449 1448 1447 1445 1444 1442 1441 1439 1438 1436 1434 1432 1430 1429 1427 1425 1424 1422 1420 1418 1416 1414 1412 1410 1409 1407 1405 1404 1402 1401 1400 1398 1396 1394 1392 1390 1388 1387 1385 1384 1383 1382 1381 1380 1379 1378 1377 1376 1375 1374 1373 1372 1371 1370 1369 1368 1367 1366 1366 1365 1365 1365
1455 1454 1453 1452 1451 1450 1448 1447 1446 1445 1443 1442 1440 1439 1437 1435 1434 1432 1430 1428 1426 1425 1423 1421 1419 1417 1415 1413 1411 1409 1408 1406 1404 1403 1401 1399 1397 1396 1394 1393 1390 1388 1386 1385 1383 1382 1381 1380 1379 1378 1377 1376 1375 1374 1372 1371 1370 1370 1369 1368 1367 1366 1365 1364 1362 1362 1362 1361 1361
1453 1452 1451 1450 1449 1448 1446 1445 1444 1442 1441 1440 1438 1436 1435 1433 1431 1429 1427 1425 1424 1422 1420 1418 1416 1414 1412 1410 1408 1406 1405 1403 1402 1400 1398 1396 1395 1393 1391 1389 1387 1385 1383 1381 1380 1379 1378 1377 1376 1375 1375 1374 1372 1371 1370 1368 1367 1367 1366 1365 1364 1363 1361 1360 1360 1359 1358 1358 1357
1451 1450 1449 1448 1447 1445 1445 1443 1442 1440 1439 1437 1435 1434 1432 1430 1428 1426 1425 1423 1421 1419 1417 1415 1413 1411 1410 1408 1406 1404 1402 1401 1399 1397 1395 1394 1392 1390 1388 1386 1384 1382 1380 1379 1378 1376 1375 1375 1374 1373 1372 1371 1370 1368 1367 1366 1365 1364 1363 1361 1360 1359 1358 1357 1356 1356 1355 1355 1354
1449 1448 1447 1446 1445 1444 1442 1441 1440 1438 1437 1435 1433 1431 1430 1428 1426 1424 1422 1420 1418 1416 1415 1413 1411 1409 1407 1405 1403 1401 1400 1398 1396 1395 1393 1391 1389 1387 1385 1383 1381 1379 1377 1376 1375 1374 1373 1372 1371 1370 1369 1369 1367 1366 1364 1363 1362 1360 1359 1358 1357 1356 1355 1354 1353 1353 1352 1351 1351
1447 1446 1445 1444 1443 1442 1440 1439 1438 1436 1434 1433 1431 1429 1427 1425 1423 1421 1420 1418 1416 1414 1412 1410 1409 1406 1405 1402 1400 1399 1397 1395 1394 1392 1390 1388 1386 1384 1381 1380 1378 1376 1375 1373 1372 1371 1370 1369 1368 1367 1366 1365 1365 1363 1362 1360 1359 1358 1356 1355 1354 1352 1352 1351 1350 1349 1349 1348 1348
1445 1445 1444 1442 1441 1440 1438 1437 1435 1434 1432 1430 1428 1426 1425 1423 1421 1419 1417 1415 1414 1412 1410 1408 1406 1404 1402 1400 1398 1397 1395 1393 1391 1390 1388 1385 1383 1380 1378 1377 1375 1373 1372 1371 1370 1368 1367 1366 1365 1364 1363 1362 1361 1360 1359 1357 1356 1354 1353 1351 1350 1349 1348 1347 1346 1346 1345 1345 1344
1444 1443 1442 1440 1439 1438 1436 1435 1433 1431 1430 1428 1426 1424 1422 1420 1419 1417 1415 1413 1411 1409 1407 1405 1403 1401 1400 1398 1396 1395 1393 1391 1389 1387 1384 1382 1380 1377 1375 1374 1372 1370 1369 1368 1367 1366 1365 1363 1362 1361 1360 1359 1358 1357 1356 1354 1353 1351 1349 1348 1346 1345 1345 1344 1343 1342 1341 1341 1341
1442 1441 1440 1438 1437 1435 1434 1432 1431 1429 1427 1425 1424 1422 1420 1418 1416 1415 1413 1411 1409 1407 1405 1403 1401 1399 1397 1395 1393 1392 1390 1388 1385 1383 1381 1379 1377 1375 1373 1371 1369 1368 1366 1365 1364 1363 1362 1361 1360 1359 1358 1356 1355 1354 1352 1351 1349 1348 1346 1344 1343 1342 1341 1340 1340 1339 1338 1337 1337
1440 1439 1438 1436 1435 1433 1432 1430 1428 1427 1425 1423 1421 1420 1418 1416 1414 1412 1410 1408 1406 1404 1402 1400 1399 1396 1395 1393 1391 1389 1387 1384 1382 1380 1378 1376 1374 1372 1370 1368 1367 1365 1364 1363 1362 1360 1360 1358 1357 1356 1355 1354 1353 1351 1349 1348 1346 1345 1343 1341 1340 1339 1338 1337 1336 1335 1334 1334 1333
1438 1437 1436 1434 1433 1431 1430 1428 1426 1424 1422 1421 1419 1417 1415 1414 1412 1410 1408 1406 1404 1402 1400 1398 1396 1394 1392 1390 1388 1386 1384 1381 1379 1377 1375 1373 1371 1370 1367 1365 1364 1363 1362 1361 1360 1358 1357 1356 1355 1354 1353 1351 1350 1348 1346 1345 1343 1341 1340 1338 1337 1335 1335 1334 1333 1332 1331 1330 1329
1437 1435 1434 1432 1430 1429 1427 1425 1424 1422 1420 1418 1416 1415 1413 1411 1409 1407 1405 1403 1401 1399 1397 1395 1394 1392 1390 1388 1385 1383 1381 1379 1376 1374 1372 1370 1369 1367 1365 1363 1362 1360 1359 1359 1357 1356 1355 1354 1353 1351 1350 1349 1347 1345 1344 1342 1340 1338 1337 1335 1334 1332 1331 1330 1329 1328 1327 1326 1326
1435 1433 1431 1430 1428 1427 1425 1423 1422 1420 1418 1416 1414 1412 1410 1409 1407 1405 1403 1401 1399 1397 1395 1393 1391 1389 1387 1385 1383 1381 1379 1376 1374 1372 1370 1368 1367 1365 1363 1361 1359 1358 1357 1356 1355 1354 1353 1352 1350 1349 1348 1346 1345 1343 1341 1340 1337 1335 1334 1332 1330 1329 1328 1327 1325 1325 1323 1323 1322
1433 1431 1430 1428 1426 1425 1423 1421 1420 1418 1416 1414 1412 1410 1409 1407 1405 1403 1401 1399 1397 1395 1392 1390 1389 1386 1384 1382 1380 1378 1376 1374 1372 1370 1368 1366 1365 1363 1361 1359 1357 1356 1355 1354 1353 1352 1351 1349 1348 1347 1345 1344 1342 1340 1339 1337 1335 1333 1331 1329 1328 1326 1325 1324 1323 1321 1320 1319 1318
1431 1430 1428 1426 1425 1423 1421 1420 1418 1416 1414 1412 1410 1409 1407 1405 1403 1401 1399 1397 1395 1393 1390 1388 1386 1384 1382 1380 1377 1375 1373 1372 1370 1368 1366 1364 1363 1361 1360 1358 1355 1354 1353 1352 1351 1350 1348 1347 1345 1344 1343 1342 1340 1338 1336 1335 1332 1330 1329 1327 1325 1324 1322 1321 1320 1318 1317 1315 1314
1429 1428 1426 1425 1423 1421 1419 1418 1416 1414 1412 1410 1408 1406 1405 1403 1400 1398 1396 1395 1393 1390 1388 1386 1384 1381 1380 1377 1375 1373 1371 1369 1368 1366 1364 1362 1361 1359 1358 1356 1354 1352 1351 1350 1349 1348 1346 1345 1344 1342 1341 1340 1338 1337 1335 1333 1330 1329 1327 1325 1324 1322 1320 1319 1318 1316 1315 1313 1312
1427 1426 1424 1423 1421 1419 1417 1416 1414 1412 1410 1409 1406 1405 1403 1400 1398 1396 1395 1393 1391 1389 1386 1384 1381 1379 1377 1375 1373 1371 1369 1367 1365 1364 1362 1361 1359 1357 1356 1354 1352 1351 1349 1348 1347 1345 1344 1343 1341 1340 1339 1338 1337 1335 1333 1331 1329 1326 1325 1323 1321 1320 1318 1316 1315 1314 1312 1311 1310
Wind_Speed
15 14 14 14 15 16 17 19 21 22 23 23 23 24 24 23 22 21 21 20 20 20 21 21 22 23 24 25 25 25 25 25 25 26 26 27 27 27 28 29 29 30 30 30 30 30 30 29 29 29 29 29 30 31 31 31 32 31 30 29 30 30 29 29 30 30 30 30 30
14 14 14 15 16 18 20 21 22 23 23 23 23 23 23 23 22 22 22 21 21 21 22 22 23 24 25 25 25 25 26 26 27 27 28 29 29 30 31 31 32 32 33 33 34 33 33 32 32 31 30 29 29 29 29 29 30 30 30 30 31 31 31 31 31 30 31 31 31
13 14 15 17 18 20 21 21 22 22 22 22 22 22 22 22 22 23 23 23 23 23 22 21 23 25 26 27 27 27 27 28 29 29 30 31 32 32 33 33 34 35 35 35 35 35 35 35 35 35 34 33 32 30 30 30 29 29 29 30 31 31 32 32 32 32 31 31 31
14 15 17 18 19 20 20 21 21 21 21 21 21 21 21 22 23 23 24 24 24 24 22 21 24 27 29 29 29 29 30 30 31 31 32 32 33 33 34 35 35 35 35 35 35 36 36 36 36 35 34 34 33 32 31 31 31 31 31 31 31 31 32 33 33 33 32 32 32
15 16 17 18 19 20 20 20 19 19 19 19 20 20 20 21 22 22 22 22 22 21 21 22 26 29 31 31 31 32 32 32 31 31 31 31 32 32 33 33 33 33 33 33 34 34 34 34 34 34 33 33 33 32 31 31 31 31 32 32 32 32 33 33 33 33 33 33 33
15 17 18 19 19 19 19 19 18 18 18 19 19 20 20 20 20 20 20 21 21 21 23 26 29 32 33 33 33 32 31 31 30 30 30 30 31 31 31 31 31 31 32 32 32 32 33 33 33 32 32 31 31 32 32 31 31 31 31 31 32 32 32 33 33 33 33 33 33
16 17 18 18 18 18 18 18 18 18 18 19 20 20 20 21 22 23 23 24 25 25 26 28 30 31 32 31 31 30 30 30 30 30 30 30 30 30 30 30 30 30 31 31 32 32 32 31 31 31 30 30 30 30 30 30 30 29 29 30 30 30 30 31 31 32 32 33 33
16 16 16 16 17 17 17 17 17 18 19 19 20 21 22 23 24 25 27 27 27 27 27 28 29 29 29 29 29 29 29 30 30 30 30 30 30 30 30 30 31 31 31 32 32 32 31 31 30 30 29 29 29 29 29 29 29 30 30 30 30 30 30 30 30 31 31 32 33
14 14 15 15 16 16 17 18 18 19 19 20 21 22 23 25 26 27 28 27 27 27 27 27 28 27 27 27 27 28 28 29 30 30 30 30 30 31 31 31 31 32 31 31 31 30 30 29 29 29 29 29 29 30 30 31 32 32 33 32 32 32 31 31 31 31 31 32 33
12 13 15 15 16 17 18 18 19 19 20 21 22 23 24 25 26 26 25 25 26 27 27 27 26 26 26 27 28 29 29 29 29 29 30 30 30 31 31 31 31 32 31 31 30 29 29 28 28 29 30 30 31 32 33 34 35 35 36 35 35 35 35 35 34 33 33 33 33
13 14 15 16 17 18 18 19 19 20 21 22 22 22 22 22 22 21 22 22 24 25 25 25 25 25 26 27 28 28 28 28 28 28 29 30 30 30 31 31 31 31 32 32 31 31 30 30 30 31 32 32 32 33 33 34 35 36 37 37 37 38 38 38 38 37 36 36 35
14 15 16 17 18 18 19 19 20 21 21 21 20 19 19 19 19 20 21 22 23 23 23 24 24 25 26 26 27 27 27 27 28 28 29 29 30 30 30 31 31 32 32 32 32 32 31 32 33 33 34 34 33 33 33 34 34 34 35 37 37 37 38 39 40 40 39 38 37
15 16 17 17 18 19 19 20 20 20 19 18 18 18 18 20 21 22 23 24 24 24 24 25 25 25 26 26 26 26 27 28 28 29 29 30 30 31 31 32 32 32 33 33 33 33 33 33 33 34 34 35 35 34 34 34 34 33 34 34 35 35 36 38 39 39 39 38 38
16 17 18 18 19 19 19 19 18 17 17 17 18 19 21 23 24 24 24 24 24 25 25 26 26 26 26 26 27 28 29 30 30 30 31 31 32 32 32 33 33 33 33 33 33 33 33 33 33 34 34 34 35 35 35 35 34 34 34 34 35 35 36 36 36 36 36 37 37
17 17 18 18 18 18 18 18 17 17 18 19 21 22 24 25 25 25 25 25 26 26 27 27 27 27 28 29 30 31 31 31 31 32 32 32 32 33 33 33 33 32 32 32 32 32 33 33 34 34 34 35 36 36 36 36 35 35 35 36 36 36 36 36 36 36 36 36 36
16 17 17 17 16 17 17 18 18 19 20 22 23 24 25 25 25 25 26 27 27 27 27 28 28 29 30 31 31 32 32 32 32 32 32 32 32 33 33 33 33 33 32 32 32 33 33 34 34 35 35 36 36 37 37 36 36 36 36 36 37 37 37 37 37 37 37 36 36
15 15 15 15 15 16 18 19 20 22 22 24 25 25 26 26 26 27 27 28 28 28 29 29 30 31 31 32 32 32 32 32 32 32 32 32 33 33 33 33 33 33 33 33 33 34 34 34 34 35 35 36 37 37 37 37 37 37 37 37 37 37 37 37 37 37 37 37 37
14 14 14 15 16 17 19 20 22 23 24 25 26 27 27 27 27 28 29 29 29 29 30 31 31 32 32 32 33 33 33 33 33 33 33 34 34 34 34 34 34 34 34 34 34 35 35 35 35 35 35 36 36 37 37 36 36 36 36 36 36 37 37 37 37 37 37 37 37
13 13 13 15 16 18 20 22 24 25 26 27 27 27 28 28 28 29 29 30 30 30 31 32 32 33 33 33 34 34 34 34 35 35 35 35 35 35 35 35 35 35 35 35 35 35 36 36 36 36 35 35 35 35 34 34 34 34 34 34 34 35 35 35 35 36 36 37 37
12 13 14 16 18 20 22 24 25 26 27 28 28 28 28 29 29 29 29 30 31 31 32 33 33 34 34 35 35 36 36 35 36 36 36 36 35 35 35 35 35 35 35 35 35 36 36 36 35 35 35 34 34 34 34 34 34 34 34 34 34 34 33 33 34 34 35 36 36
13 14 16 18 20 22 24 25 27 27 28 28 28 28 28 28 29 29 30 31 32 32 33 34 35 35 36 36 37 37 37 36 36 36 36 36 35 35 35 35 35 35 36 36 36 36 36 36 36 36 35 35 35 35 36 36 36 36 36 36 36 35 35 35 34 34 35 35 35
15 17 19 20 22 24 25 27 27 28 28 28 28 28 28 28 29 30 31 32 33 34 35 36 36 37 38 38 38 39 39 38 38 37 37 36 35 34 34 34 35 36 37 38 38 38 38 38 37 36 35 35 35 35 35 35 35 35 35 36 36 36 36 36 36 36 36 35 35
18 19 21 22 24 25 26 27 28 28 28 28 28 28 28 29 30 31 32 33 34 35 36 37 38 38 39 40 40 40 40 40 39 38 37 36 34 34 34 35 35 37 38 39 39 38 37 36 35 34 33 32 32 32 33 33 33 33 34 34 34 35 35 35 36 36 36 37 37
20 21 22 24 25 26 27 28 28 28 28 28 28 28 29 30 31 32 34 35 36 37 38 39 39 40 40 41 41 41 40 39 38 38 37 35 34 34 34 35 37 38 39 38 37 36 34 33 32 31 30 30 30 31 31 32 32 32 32 33 33 34 34 34 34 34 35 36 36
21 22 23 24 25 26 27 28 28 28 28 28 29 29 30 31 32 34 35 37 37 38 39 40 40 41 41 41 41 40 39 37 36 36 36 35 35 35 36 37 37 38 38 37 36 34 32 30 30 29 29 30 30 31 31 32 32 32 32 33 33 34 34 34 34 34 34 35 35
22 23 24 25 26 27 28 28 28 29 29 29 30 31 31 32 33 35 36 37 38 39 39 40 41 41 41 40 40 38 37 36 35 34 34 35 36 36 37 37 37 37 37 35 34 32 31 30 29 29 29 30 31 32 33 33 33 33 33 33 33 33 34 35 35 35 35 35 35
23 24 25 26 27 27 28 28 29 29 29 30 31 31 32 34 35 36 36 37 38 39 40 41 41 40 39 38 37 36 35 35 34 34 34 34 35 36 36 36 36 36 35 34 33 32 31 30 30 30 30 30 32 33 34 35 34 34 35 34 34 34 34 35 35 35 35 35 35
23 25 26 27 27 28 28 29 29 29 30 31 31 32 34 35 35 36 37 37 38 39 40 40 40 39 37 36 35 35 35 35 34 34 33 33 34 35 36 36 36 35 34 33 32 32 31 31 30 30 30 30 32 33 34 35 35 35 35 35 35 35 35 35 35 35 35 35 35
24 25 26 27 28 29 29 29 29 30 31 32 33 34 34 35 36 36 37 38 38 38 38 37 37 37 36 35 35 35 36 35 33 33 32 33 33 35 36 36 35 34 33 32 32 31 31 31 30 30 29 30 31 33 34 35 35 35 35 35 35 35 34 34 34 34 34 34 34
25 26 27 28 29 29 30 30 30 31 32 32 33 34 35 35 36 37 37 37 37 36 36 36 36 36 36 35 35 35 34 33 32 32 32 33 34 35 35 35 34 33 33 32 32 31 31 30 29 29 29 29 30 32 33 35 35 35 35 36 36 36 35 35 35 35 34 34 34
26 27 28 28 29 30 30 30 31 32 32 33 34 34 35 36 36 36 36 36 35 35 35 36 35 35 35 35 34 33 32 32 32 32 32 33 34 35 35 34 33 33 33 32 31 31 30 29 28 28 27 28 29 31 32 34 35 36 36 36 36 36 36 36 36 36 36 35 35
26 27 28 29 30 30 31 31 32 32 33 33 34 35 35 36 36 36 36 36 36 35 35 35 35 35 34 33 33 32 32 32 33 34 34 35 35 34 34 34 33 33 33 32 31 29 28 27 27 26 26 26 28 29 31 33 34 35 36 37 37 37 37 37 37 37 37 36 36
27 28 29 29 30 31 31 32 32 33 33 34 34 35 36 36 36 37 37 36 35 35 35 34 34 33 33 32 32 32 33 33 34 35 35 34 34 34 34 34 34 33 32 31 30 28 27 26 25 25 24 25 26 28 30 32 33 34 35 36 36 36 36 36 37 37 37 37 37
28 29 29 30 30 31 32 32 33 33 34 34 35 36 36 36 37 37 37 36 35 34 34 33 32 32 32 31 32 33 34 34 35 35 34 34 33 33 34 34 33 33 32 30 29 27 25 24 24 23 23 23 25 27 29 31 32 33 34 35 35 35 35 35 36 37 37 37 37
28 29 30 30 31 31 32 33 33 34 34 35 36 36 37 37 36 36 35 35 34 34 34 33 32 32 32 33 33 34 34 35 35 34 34 33 33 33 33 33 33 32 30 29 27 25 24 23 22 21 21 22 25 27 29 31 32 33 34 34 35 35 35 35 35 35 36 36 37
28 29 30 31 31 32 32 33 33 34 35 35 36 37 37 37 36 35 35 35 34 34 33 32 32 32 33 34 34 35 35 34 34 34 34 34 33 33 33 33 32 31 29 27 25 23 21 20 20 20 21 23 25 27 29 31 33 34 34 34 35 35 35 35 35 35 35 36 36
28 29 30 31 32 32 33 33 34 34 35 36 37 37 37 36 35 35 34 34 33 33 33 33 33 33 34 35 35 35 34 33 33 34 34 33 33 32 32 32 31 30 27 25 22 20 19 19 20 20 22 24 26 28 30 32 33 34 35 35 35 35 35 35 35 35 35 35 35
28 29 30 31 32 32 33 33 34 35 35 36 36 36 36 35 35 34 34 34 33 32 33 34 34 34 35 35 35 34 34 33 33 33 33 33 32 31 31 31 30 29 26 23 20 19 19 20 20 21 22 25 27 29 31 33 34 35 35 35 35 35 34 34 33 34 34 35 35
28 29 30 31 32 32 33 33 34 35 35 36 36 36 35 35 35 34 34 34 33 32 33 34 34 35 35 34 34 34 33 33 33 32 32 31 30 29 29 30 29 27 24 21 20 19 20 21 22 22 24 26 28 30 32 34 34 34 34 33 32 32 31 31 31 32 32 34 34
29 30 31 31 32 32 33 33 34 34 35 35 35 35 35 35 35 35 34 34 33 32 32 33 34 34 34 33 33 33 33 33 32 31 31 30 29 28 28 28 28 27 24 21 20 20 21 22 23 24 25 27 28 30 32 33 33 32 30 29 28 28 28 28 28 28 29 31 32
30 30 31 31 31 32 32 33 34 34 34 35 34 34 34 35 35 34 34 33 32 32 32 33 33 33 33 32 32 32 32 32 32 31 29 29 28 28 28 27 27 26 24 22 22 22 23 24 25 25 26 27 28 29 30 30 30 29 28 27 27 27 27 27 27 26 27 28 29
Wind_Direction
276 277 279 282 288 294 300 302 303 303 302 301 300 299 298 298 299 300 302 302 302 301 300 299 297 296 296 296 295 295 294 292 291 290 289 287 286 285 284 282 281 280 279 278 277 277 276 275 275 274 273 272 270 269 267 266 264 263 262 261 261 262 263 264 265 265 265 265 265
276 278 283 289 294 298 300 300 300 300 299 298 297 295 294 294 296 298 300 300 299 299 299 298 296 296 295 295 294 294 294 293 292 291 290 289 287 286 286 285 284 283 282 281 280 279 278 277 276 275 274 272 271 270 268 267 266 264 263 262 261 261 262 263 263 263 264 264 264
279 284 289 294 296 298 298 298 298 298 297 296 295 294 293 295 297 298 299 299 298 298 298 297 295 295 295 295 294 294 293 293 292 291 290 289 288 287 286 286 285 285 284 283 283 282 280 279 278 277 275 273 271 270 268 267 266 265 264 263 262 262 262 262 262 263 264 264 263
284 289 293 295 296 297 296 296 295 294 293 292 292 293 295 298 299 300 300 300 299 298 297 295 295 295 296 295 295 294 294 293 292 292 291 290 289 288 287 286 286 285 285 284 283 283 282 281 280 279 277 275 273 270 268 267 266 264 264 263 263 262 262 262 262 263 263 263 263
287 290 293 294 295 295 294 294 292 290 289 289 292 296 299 301 301 301 301 301 299 298 296 295 295 296 297 297 297 296 296 295 294 293 292 291 290 290 289 288 288 287 286 285 284 283 283 282 281 279 277 276 274 271 269 268 267 265 264 264 263 262 262 262 262 262 262 262 262
289 291 292 294 294 293 292 291 289 289 290 293 298 300 301 300 300 300 299 298 297 297 296 296 296 298 299 299 299 298 297 296 295 294 292 291 291 291 290 290 289 288 288 287 286 286 285 284 282 280 277 276 274 273 272 270 268 266 265 264 263 262 262 261 261 261 261 260 260
292 293 294 294 293 291 289 289 291 295 298 301 303 303 301 299 298 298 298 297 297 297 297 297 298 299 300 300 300 299 298 297 296 295 294 293 292 291 290 289 289 289 288 288 288 288 286 285 282 279 277 275 274 273 272 270 268 266 265 264 263 263 262 261 261 261 260 260 259
297 296 293 291 289 289 291 294 299 302 304 304 303 302 301 300 299 299 300 300 299 298 298 298 299 300 300 299 298 297 297 296 296 296 295 294 294 293 292 291 290 290 290 290 289 288 287 285 281 278 276 274 273 272 271 269 268 266 265 265 264 263 263 262 261 260 260 259 259
301 295 290 288 289 293 298 302 304 304 304 303 302 301 301 301 301 302 302 301 300 300 300 300 300 299 298 297 296 295 295 295 295 295 295 295 294 294 294 293 292 292 291 290 289 287 285 282 279 276 275 273 272 272 272 271 270 269 268 266 266 265 264 262 261 261 260 260 259
293 289 289 292 296 301 304 305 305 304 303 303 303 302 302 303 303 303 302 301 301 301 301 300 299 298 296 295 294 295 295 295 295 295 295 294 294 294 294 293 293 292 291 289 287 285 282 279 275 274 273 273 272 273 274 273 272 272 271 269 268 268 267 265 264 262 261 259 259
287 289 295 299 303 305 306 305 304 304 304 304 304 304 303 302 301 300 299 298 299 299 298 298 296 295 294 294 295 296 297 296 295 294 294 294 293 293 293 292 291 290 290 289 287 285 282 279 277 276 275 274 273 273 273 273 272 272 272 271 271 270 269 268 267 265 263 261 259
295 299 302 304 305 305 305 304 304 304 304 305 304 302 300 299 297 297 297 297 296 296 295 295 294 294 294 295 295 296 296 295 294 293 293 292 292 292 291 290 290 289 289 288 287 285 282 280 279 279 278 277 275 273 272 271 270 270 270 270 270 269 269 269 269 267 266 263 261
302 304 305 304 304 304 304 304 305 305 305 304 301 299 299 298 298 298 299 299 298 297 297 297 296 296 296 295 295 295 295 294 294 293 293 292 292 292 292 291 291 290 289 289 288 286 284 282 281 280 279 278 276 274 272 271 269 267 266 266 266 265 265 266 266 266 265 263 261
305 304 303 303 303 303 304 305 305 304 303 301 300 300 301 302 302 303 302 302 301 300 300 300 300 299 297 297 296 296 296 296 296 295 295 294 294 294 294 293 293 292 291 290 288 286 284 282 281 280 278 277 276 274 272 270 268 266 265 264 263 262 262 262 262 262 262 261 260
303 303 302 302 303 304 304 305 303 302 302 302 303 304 305 306 306 306 305 304 303 303 302 302 301 300 300 299 299 300 300 299 299 298 298 297 297 296 295 294 293 292 291 289 287 286 284 282 281 279 278 276 275 274 273 271 268 267 265 264 263 262 261 261 260 260 260 259 259
301 301 302 303 303 303 303 303 303 303 304 305 306 307 308 308 308 307 306 306 305 305 304 303 302 302 302 303 303 303 302 301 301 300 299 298 297 297 296 294 293 292 290 289 287 285 284 282 281 279 278 277 276 275 273 271 269 267 266 264 263 262 262 261 260 260 260 259 259
300 299 300 301 301 302 303 304 305 306 308 309 310 310 310 310 309 308 308 307 307 306 305 304 304 304 305 305 305 304 303 302 301 300 299 298 298 297 296 295 294 293 291 289 287 286 285 284 282 280 279 277 276 275 274 272 270 268 266 265 264 263 262 261 261 260 260 259 258
298 298 299 300 301 303 304 306 308 309 311 312 312 312 312 311 311 310 310 309 308 307 307 307 307 307 307 307 307 306 305 304 303 302 301 300 299 298 297 296 295 294 293 291 289 288 286 285 283 281 279 277 276 275 273 272 270 269 268 266 265 264 263 262 261 261 260 259 259
297 297 299 301 303 305 306 308 310 312 313 314 314 314 314 313 312 312 311 310 310 309 309 309 309 309 309 308 308 308 307 306 305 304 303 302 301 300 299 298 297 296 294 292 291 289 288 286 284 282 280 278 276 275 273 272 271 269 268 267 266 265 264 263 262 262 261 260 259
297 298 301 303 305 307 309 311 313 315 316 317 317 316 315 314 313 312 311 311 311 310 310 311 311 311 311 310 310 310 308 307 306 305 303 303 301 300 300 299 298 297 296 294 292 290 288 286 284 281 279 277 275 273 272 270 269 268 267 266 266 265 264 264 263 262 261 260 260
299 301 303 305 307 309 312 314 316 318 319 318 318 317 316 315 313 312 312 312 312 312 312 313 313 313 313 312 312 311 309 308 306 305 304 303 302 301 301 300 299 297 296 294 292 290 288 286 283 281 278 276 274 273 272 270 270 269 268 267 266 265 265 264 263 261 261 260 259
301 303 306 308 310 312 315 317 319 320 320 319 318 317 316 314 313 312 313 313 313 314 314 314 314 314 314 314 313 312 310 309 308 307 306 305 303 302 302 300 299 297 296 294 293 291 289 287 285 282 280 279 277 276 276 275 274 274 273 272 270 269 268 266 264 263 261 260 259
304 306 308 310 313 316 318 320 321 321 321 319 318 317 316 314 314 314 314 315 315 315 315 315 315 315 315 314 313 313 312 311 310 309 308 307 304 303 302 300 298 297 296 295 294 292 290 289 287 286 284 282 281 280 279 278 278 277 276 275 274 273 272 270 268 266 264 262 261
306 308 311 313 316 318 321 322 322 321 320 319 318 317 316 315 315 315 315 316 316 316 316 316 316 316 315 315 314 313 313 312 311 310 309 307 304 302 301 299 298 297 297 296 295 293 292 290 289 289 287 286 284 283 282 280 279 278 277 276 275 274 273 272 270 268 266 265 263
309 310 313 316 318 321 322 322 322 321 320 319 318 317 316 316 316 316 317 317 317 317 317 317 317 316 316 315 315 314 313 312 310 309 308 306 304 302 300 299 298 298 298 297 296 295 294 293 293 292 291 290 288 286 284 282 280 279 278 276 275 275 274 273 271 269 267 265 264
311 313 315 318 320 322 322 322 321 320 319 318 318 317 317 316 316 317 317 317 317 318 318 318 318 317 316 315 315 314 312 310 309 307 305 304 303 302 301 300 299 299 298 298 298 297 297 297 296 296 295 293 291 289 287 285 283 281 279 278 277 275 274 273 272 270 268 267 265
313 315 317 320 321 322 322 321 321 320 319 318 317 317 317 317 317 317 317 317 318 318 319 318 318 317 316 315 313 311 310 309 307 306 304 303 302 301 301 300 299 299 299 299 299 299 300 299 299 298 296 294 291 289 287 286 284 283 281 280 279 277 275 274 272 271 270 269 267
315 317 319 320 321 321 321 321 320 319 318 318 317 317 317 317 317 317 318 318 319 319 319 319 318 317 315 313 311 309 309 309 307 306 304 302 301 300 299 299 300 300 300 300 300 300 301 300 299 298 296 294 291 289 288 286 285 284 282 281 279 278 276 274 273 271 270 269 268
317 318 320 321 321 321 321 320 319 319 318 318 318 318 318 318 318 318 319 319 319 319 318 317 316 315 313 310 309 309 309 309 307 305 303 301 299 299 299 300 300 301 301 301 301 301 301 300 299 297 296 294 292 290 289 287 285 284 282 280 279 277 275 274 272 271 270 269 268
318 319 320 320 320 321 320 320 319 319 318 318 318 318 319 319 319 319 319 319 319 318 316 315 314 313 311 310 310 310 309 308 306 303 301 299 298 299 300 301 302 302 302 302 303 303 302 300 299 298 296 295 293 291 289 288 286 284 282 281 279 277 275 274 272 271 269 268 267
319 320 320 320 320 320 320 320 319 319 319 319 319 319 320 320 320 320 319 318 317 317 316 315 314 312 312 311 310 308 307 305 304 302 300 299 300 300 302 303 303 304 304 304 304 304 302 301 300 298 297 296 295 294 292 290 288 286 284 282 280 279 277 275 273 271 270 268 267
319 319 320 320 320 320 320 320 320 320 320 320 320 320 320 320 320 319 319 318 318 317 316 315 314 313 311 310 309 308 306 305 304 303 302 302 303 303 304 305 305 306 306 306 306 305 303 302 300 299 298 298 298 296 295 293 291 289 287 285 282 280 279 277 275 273 271 269 267
319 319 320 320 320 320 320 320 320 320 321 321 321 321 321 320 320 320 320 319 318 317 316 315 313 312 311 309 308 308 307 306 305 305 306 306 306 306 306 306 307 307 307 307 307 305 304 302 300 300 300 300 301 300 299 297 295 292 289 287 285 283 281 279 277 275 273 271 269
319 320 320 320 320 321 321 321 321 321 322 322 321 321 321 321 320 320 320 320 318 317 316 315 313 311 310 309 308 307 307 308 308 309 309 308 308 308 307 307 307 308 308 308 307 305 303 302 301 301 303 304 305 305 303 301 298 295 292 289 287 285 283 281 279 278 276 274 271
319 320 320 320 321 321 322 322 322 322 322 322 322 321 321 321 321 321 320 319 318 317 316 315 313 311 310 309 309 309 309 310 311 311 311 311 310 309 309 309 309 309 309 309 307 305 303 303 304 306 308 310 310 309 306 303 300 298 295 292 290 288 286 284 281 279 278 276 274
319 320 320 321 322 322 323 323 323 323 322 322 322 322 322 322 321 321 320 319 318 317 316 314 312 311 310 309 310 312 313 313 313 313 313 313 312 311 310 310 310 310 310 309 308 306 305 306 309 313 315 316 314 312 309 305 303 300 298 294 292 291 289 287 285 282 281 279 276
320 320 321 322 323 323 323 323 323 322 322 322 322 322 322 322 321 321 320 320 318 316 315 314 312 311 310 311 313 314 316 316 315 314 314 313 313 312 312 311 311 311 311 311 309 309 310 313 316 320 320 319 316 314 311 308 304 301 298 296 294 292 291 290 287 285 283 281 278
321 322 322 323 323 323 323 323 322 322 322 322 322 322 322 321 321 321 320 320 318 316 315 314 313 312 313 314 315 317 318 317 316 314 313 313 313 313 313 313 313 313 313 313 313 314 317 320 323 325 324 322 319 316 313 309 306 302 299 296 294 293 291 289 286 285 283 282 281
322 322 323 323 323 323 322 322 322 322 322 322 322 322 322 322 321 321 321 321 319 317 315 314 313 313 315 316 317 318 318 318 316 315 314 314 315 316 316 315 315 316 317 318 319 322 324 327 328 328 327 324 321 317 314 310 306 302 299 296 294 292 290 288 286 283 282 281 281
322 322 322 322 322 322 322 322 322 322 322 322 322 322 322 322 322 323 323 322 320 317 315 313 313 315 317 318 317 317 317 317 316 315 315 315 317 319 319 318 318 319 321 323 326 328 330 331 331 330 328 325 321 317 313 309 305 301 297 294 292 290 289 288 286 284 282 281 280
322 322 322 322 322 322 322 322 322 322 323 323 322 322 323 323 324 324 323 321 319 317 315 314 314 316 317 318 317 316 316 316 317 317 317 318 320 322 322 321 321 322 325 328 331 333 333 333 332 330 328 324 321 316 312 307 304 300 296 294 292 291 290 289 288 287 285 284 283